Location: Lafig�re
(44.4503°N, 4.0357°E)
Time: 22:10:05
(UTC+00:00)

BlueWalker 3 - Pass Details

Date: 05 December 2022
Orbit: 499 x 517 km, 53.2° (Epoch: 04 February)

Event Time Altitude Azimuth Distance (km) Brightness Sun altitude
Rises 18:23:55 0° 305° (NW) 2,626 6.3 -24.1°
Reaches altitude 10° 18:26:13 10° 312° (NW) 1,734 5.1 -24.5°
Enters shadow 18:28:19 27° 332° (NNW) 1,015 3.6 -24.9°
